#timestamp,LO_Frequency,Hit,StdDev 
1610179215.0,286047010.8,N
1610179216.0,286047010.8,N
1610179235.8,286047014.7,N
1610179255.6,286047014.1,N
1610179275.5,286047016.0,Y
1610179295.3,286047012.4,P
1610179315.1,286047013.4,P
1610179335.9,286047012.6,P
1610179355.7,286047008.7,Y
1610179375.6,286046984.8,P
1610179395.4,286046978.8,N
1610179415.2,286046979.5,N
1610179435.1,286046978.1,N
1610179436.0,286046978.1,N
1610179455.8,286046985.2,N
1610179475.7,286046981.1,N
1610179495.5,286046977.4,N
1610179515.3,286046978.2,N
1610179535.2,286046985.7,N
1610179555.0,286046986.9,N
1610179555.9,286046986.9,N
1610179575.7,286046988.3,N
1610179595.6,286046985.0,N
1610179615.4,286046988.9,N
1610179635.3,286046994.5,N
1610179655.1,286046996.7,N
1610179656.0,286046996.7,N
1610179675.8,286047002.5,N
1610179695.7,286047005.2,N
1610179715.5,286047015.4,N
1610179735.3,286047009.8,N
1610179755.2,286047006.6,N
1610179775.0,286047006.1,N
1610179775.9,286047006.1,N
1610179795.8,286047007.6,N
1610179815.6,286047003.5,N
1610179835.4,286046995.6,N
1610179855.3,286046996.6,N
1610179875.1,286046994.7,N
1610179895.9,286046997.4,N
1610179915.7,286046997.3,N
1610179935.5,286046994.8,N
1610179955.4,286046987.2,N
1610179975.2,286046990.2,N
1610179995.0,286046998.4,N
1610179996.0,286046998.4,N
1610180015.8,286046997.9,N
1610180035.6,286046991.7,N
1610180055.5,286046986.5,N
1610180075.3,286046990.8,N
1610180095.1,286046987.6,N
1610180115.9,286046984.9,N
1610180135.7,286046987.2,N
1610180155.6,286046994.2,N
1610180175.4,286046999.6,N
1610180195.2,286046997.6,N
1610180215.1,286046991.1,N
1610180216.0,286046991.1,N
1610180235.8,286046998.0,N
1610180255.7,286046991.7,N
1610180275.5,286046996.7,N
1610180295.3,286046995.2,N
1610180315.2,286046994.1,N
1610180335.0,286046996.6,N
1610180335.9,286046996.6,N
1610180355.8,286047001.4,N
1610180375.6,286046998.2,N
1610180395.4,286046999.2,N
1610180415.3,286046992.0,N
1610180435.1,286046996.4,N
1610180455.8,286046997.3,N
1610180475.7,286046996.4,N
1610180495.5,286046996.6,N
1610180515.4,286046997.5,N
1610180535.2,286046997.9,N
1610180555.0,286046989.8,N
1610180555.9,286046989.8,N
1610180575.8,286046992.8,N
1610180595.6,286046997.9,N
1610180615.5,286046999.5,N
1610180635.3,286046996.1,N
1610180655.1,286046987.8,Y
1610180675.9,286046994.1,P
1610180695.7,286046992.5,P
1610180715.6,286046991.6,P
1610180735.4,286046988.5,Y
1610180755.2,286046993.3,P
1610180775.1,286046990.9,P
1610180776.0,286046990.9,P
1610180795.8,286046992.8,Y
1610180815.7,286047000.3,P
1610180835.5,286046994.1,N
1610180855.3,286046996.0,N
1610180875.2,286046992.3,N
1610180895.0,286047002.5,N
1610180895.9,286047002.5,N
1610180915.8,286047003.0,N
1610180935.6,286047007.7,N
1610180955.4,286047005.6,N
1610180975.3,286047001.4,N
1610180995.1,286046997.2,N
1610181015.8,286046999.7,N
1610181035.7,286047000.3,N
1610181055.5,286046999.9,N
1610181075.4,286047001.8,N
1610181095.2,286047009.0,N
1610181115.0,286047008.0,N
1610181115.9,286047008.0,N
1610181135.8,286047008.4,N
1610181155.6,286047004.8,N
1610181175.5,286046997.8,N
1610181195.3,286047003.2,N
1610181215.1,286047003.5,N
1610181235.9,286046998.6,N
1610181255.7,286047002.3,N
1610181275.6,286047006.0,N
1610181295.4,286046993.7,N
1610181315.2,286046994.6,N
1610181335.1,286047004.4,N
1610181336.0,286047004.4,N
1610181355.8,286047001.5,N
1610181375.6,286046996.8,N
1610181395.5,286046998.0,N
1610181415.3,286046999.1,N
1610181435.2,286046999.5,N
1610181455.9,286046991.7,N
1610181475.7,286046991.4,N
1610181495.6,286046988.3,N
1610181515.4,286046982.2,Y
1610181535.2,286046991.6,P
1610181555.1,286046992.1,N
1610181556.0,286046992.1,N
1610181575.8,286046990.7,N
1610181595.7,286046990.7,N
1610181615.5,286046985.8,Y
1610181635.3,286046993.5,P
1610181655.2,286046995.4,P
1610181675.0,286046992.9,P
1610181675.9,286046992.9,Y
1610181695.8,286046996.1,P
1610181715.6,286046996.5,N
1610181735.4,286047002.3,N
1610181755.3,286046996.6,N
1610181775.1,286046999.4,N
1610181795.8,286047005.6,N
1610181815.7,286047006.2,N
1610181835.5,286047014.4,Y
1610181855.4,286047006.7,P
1610181875.2,286047004.1,N
1610181895.0,286047008.0,N
1610181896.0,286047008.0,N
1610181915.8,286047016.7,Y
1610181935.6,286047013.1,P
1610181955.5,286047008.2,N
1610181975.3,286047006.7,N
1610181995.1,286047000.2,N
1610182015.9,286047004.0,N
1610182035.7,286047007.5,N
1610182055.6,286047010.7,N
1610182075.4,286047001.9,N
1610182095.2,286047002.2,N
1610182115.1,286047007.8,N
1610182116.0,286047007.8,N
1610182135.8,286047014.9,Y
1610182155.7,286047003.2,P
1610182175.5,286046997.9,N
1610182195.3,286046998.5,N
1610182215.2,286046991.1,N
1610182235.0,286046996.6,N
1610182235.9,286046996.6,N
1610182255.8,286047011.6,N
1610182275.6,286047014.5,N
1610182295.4,286047017.8,N
1610182315.3,286047023.2,N
1610182335.1,286047010.0,N
1610182355.8,286047008.1,N
1610182375.7,286047019.7,N
1610182395.5,286047007.3,N
1610182415.4,286047011.0,N
1610182435.2,286047008.8,N
1610182455.0,286047006.0,N
1610182455.9,286047006.0,N
1610182475.8,286046997.1,N
1610182495.6,286046998.2,N
1610182515.4,286046998.4,N
1610182535.3,286046997.6,N
1610182555.1,286046985.3,N
1610182575.9,286046988.5,N
1610182595.7,286046996.2,N
1610182615.5,286046995.1,N
1610182635.4,286046994.9,N
1610182655.2,286046997.9,N
1610182675.0,286046992.5,N
1610182676.0,286046992.5,N
1610182695.8,286046995.7,N
1610182715.6,286046995.0,N
1610182735.5,286046999.7,N
1610182755.3,286046970.5,Y
1610182775.1,286046998.7,P
1610182795.9,286047000.6,N
